| time (UTC) | temp F | wind direction | speed MPH | gust MPH | rain 1hr in | rain 24hr in | rain mn in | humidity % | barometer mb |
| 20260508020049 | 53 | 0 | 0.0 | 0.0 | 0.00 | 0.91 | 0.86 | 96 | 1013.4 |
| 20260508014546 | 53 | 0 | 0.0 | 0.0 | 0.00 | 0.91 | 0.86 | 96 | 1013.0 |
| 20260508013043 | 53 | 0 | 0.0 | 0.0 | 0.00 | 0.91 | 0.86 | 96 | 1012.9 |
| 20260508011559 | 53 | 0 | 0.0 | 0.0 | 0.00 | 0.91 | 0.86 | 96 | 1012.7 |
| 20260508010058 | 53 | 0 | 0.0 | 0.0 | 0.00 | 0.91 | 0.86 | 96 | 1012.8 |
| 20260508004554 | 53 | 0 | 0.0 | 0.0 | 0.00 | 0.91 | 0.86 | 95 | 1012.8 |
| 20260508003042 | 53 | 0 | 0.0 | 1.0 | 0.00 | 0.91 | 0.86 | 95 | 1012.4 |
| 20260508001548 | 53 | 0 | 0.0 | 1.0 | 0.00 | 0.91 | 0.86 | 95 | 1012.2 |
| 20260508000047 | 54 | 0 | 0.0 | 1.0 | 0.00 | 0.91 | 0.86 | 95 | 1011.9 |
| 20260507234544 | 54 | 0 | 0.0 | 3.0 | 0.00 | 0.91 | 0.86 | 95 | 1011.9 |
| 20260507233043 | 54 | 0 | 0.0 | 1.0 | 0.00 | 0.91 | 0.86 | 95 | 1011.5 |
| 20260507231546 | 54 | 0 | 0.0 | 2.0 | 0.00 | 0.91 | 0.86 | 95 | 1011.4 |
| 20260507230037 | 54 | 0 | 0.0 | 3.0 | 0.00 | 0.91 | 0.86 | 95 | 1011.6 |
| 20260507224557 | 54 | 0 | 0.0 | 2.0 | 0.00 | 0.91 | 0.86 | 95 | 1011.2 |
| 20260507223046 | 54 | 0 | 0.0 | 3.0 | 0.00 | 0.91 | 0.86 | 95 | 1011.1 |
| 20260507221539 | 54 | 0 | 0.0 | 3.0 | 0.00 | 0.91 | 0.86 | 95 | 1011.0 |
| 20260507220049 | 55 | 0 | 0.0 | 2.0 | 0.00 | 0.91 | 0.86 | 96 | 1010.9 |
| 20260507214545 | 54 | 207 | 0.0 | 1.0 | 0.01 | 0.91 | 0.86 | 96 | 1011.4 |
| 20260507213102 | 54 | 0 | 0.0 | 3.0 | 0.01 | 0.91 | 0.86 | 96 | 1011.4 |
| 20260507211543 | 55 | 149 | 0.0 | 2.0 | 0.01 | 0.91 | 0.86 | 95 | 1011.0 |
| 20260507210046 | 55 | 349 | 1.0 | 4.0 | 0.01 | 0.91 | 0.86 | 96 | 1011.3 |
| 20260507204548 | 55 | 267 | 0.0 | 3.0 | 0.00 | 0.90 | 0.85 | 95 | 1010.7 |
| 20260507203035 | 55 | 238 | 1.0 | 3.0 | 0.00 | 0.90 | 0.85 | 96 | 1010.9 |
| 20260507201544 | 55 | 0 | 0.0 | 2.0 | 0.00 | 0.90 | 0.85 | 96 | 1010.8 |
| 20260507200042 | 55 | 265 | 1.0 | 6.0 | 0.00 | 0.90 | 0.85 | 95 | 1011.1 |
| 20260507194547 | 55 | 228 | 1.0 | 6.0 | 0.01 | 0.90 | 0.85 | 95 | 1010.9 |
| 20260507193047 | 55 | 257 | 1.0 | 3.0 | 0.01 | 0.90 | 0.85 | 96 | 1010.9 |
| 20260507191544 | 55 | 281 | 2.0 | 7.0 | 0.02 | 0.90 | 0.85 | 95 | 1011.0 |
| 20260507190044 | 55 | 292 | 0.0 | 3.0 | 0.03 | 0.90 | 0.85 | 96 | 1010.9 |
| 20260507184540 | 55 | 255 | 1.0 | 6.0 | 0.02 | 0.89 | 0.84 | 96 | 1011.0 |
| 20260507183049 | 55 | 275 | 0.0 | 4.0 | 0.02 | 0.89 | 0.84 | 96 | 1010.8 |
| 20260507181546 | 55 | 300 | 1.0 | 7.0 | 0.01 | 0.88 | 0.83 | 95 | 1010.7 |
| 20260507180050 | 55 | 246 | 1.0 | 5.0 | 0.00 | 0.87 | 0.82 | 95 | 1010.9 |
| 20260507174551 | 55 | 267 | 1.0 | 6.0 | 0.01 | 0.87 | 0.82 | 95 | 1010.8 |
| 20260507173054 | 55 | 123 | 2.0 | 8.0 | 0.01 | 0.87 | 0.82 | 95 | 1011.2 |
| 20260507171555 | 55 | 0 | 1.0 | 8.0 | 0.02 | 0.87 | 0.82 | 95 | 1010.5 |
| 20260507170050 | 55 | 290 | 2.0 | 10.0 | 0.02 | 0.87 | 0.82 | 95 | 1010.2 |
| 20260507164546 | 55 | 173 | 2.0 | 8.0 | 0.02 | 0.86 | 0.81 | 95 | 1010.6 |
| 20260507163045 | 56 | 159 | 1.0 | 6.0 | 0.03 | 0.86 | 0.81 | 95 | 1010.4 |
| 20260507161548 | 57 | 261 | 1.0 | 4.0 | 0.03 | 0.85 | 0.80 | 94 | 1010.8 |
| 20260507160058 | 60 | 209 | 1.0 | 10.0 | 0.04 | 0.85 | 0.80 | 94 | 1010.9 |
| 20260507154547 | 64 | 0 | 1.0 | 4.0 | 0.04 | 0.84 | 0.79 | 96 | 1010.4 |
| 20260507153051 | 64 | 0 | 1.0 | 4.0 | 0.04 | 0.83 | 0.78 | 96 | 1010.8 |
| 20260507151545 | 65 | 0 | 0.0 | 2.0 | 0.05 | 0.82 | 0.77 | 97 | 1010.1 |
| 20260507150044 | 64 | 292 | 0.0 | 2.0 | 0.05 | 0.81 | 0.76 | 97 | 1010.6 |
| 20260507144550 | 64 | 0 | 0.0 | 2.0 | 0.07 | 0.80 | 0.75 | 96 | 1010.2 |
| 20260507143047 | 65 | 0 | 0.0 | 2.0 | 0.11 | 0.79 | 0.74 | 97 | 1010.1 |
| 20260507141552 | 65 | 252 | 0.0 | 1.0 | 0.16 | 0.77 | 0.72 | 97 | 1009.9 |
| 20260507140104 | 65 | 0 | 0.0 | 1.0 | 0.21 | 0.76 | 0.71 | 97 | 1010.2 |
| 20260507134541 | 65 | 0 | 0.0 | 2.0 | 0.23 | 0.73 | 0.68 | 97 | 1010.8 |
| 20260507133048 | 64 | 0 | 1.0 | 3.0 | 0.19 | 0.68 | 0.63 | 97 | 1011.2 |
| 20260507131554 | 64 | 0 | 0.0 | 1.0 | 0.13 | 0.61 | 0.56 | 97 | 1011.4 |
| 20260507130052 | 64 | 139 | 0.0 | 1.0 | 0.07 | 0.55 | 0.50 | 97 | 1011.1 |
| 20260507124552 | 64 | 0 | 0.0 | 0.0 | 0.02 | 0.50 | 0.45 | 97 | 1010.8 |
| 20260507123058 | 64 | 0 | 0.0 | 0.0 | 0.01 | 0.49 | 0.44 | 97 | 1011.0 |
| 20260507121550 | 64 | 0 | 0.0 | 0.0 | 0.02 | 0.48 | 0.43 | 97 | 1010.9 |
| 20260507120047 | 64 | 0 | 0.0 | 0.0 | 0.03 | 0.48 | 0.43 | 97 | 1010.8 |
| 20260507114548 | 64 | 0 | 0.0 | 0.0 | 0.03 | 0.48 | 0.43 | 96 | 1010.8 |
| 20260507113043 | 64 | 0 | 0.0 | 0.0 | 0.03 | 0.48 | 0.43 | 96 | 1010.9 |
| 20260507111549 | 64 | 0 | 0.0 | 0.0 | 0.01 | 0.46 | 0.41 | 96 | 1011.1 |
| 20260507110042 | 64 | 0 | 0.0 | 1.0 | 0.00 | 0.45 | 0.40 | 96 | 1010.9 |
| 20260507104547 | 64 | 0 | 0.0 | 2.0 | 0.01 | 0.45 | 0.40 | 96 | 1011.1 |
| 20260507103046 | 64 | 0 | 0.0 | 1.0 | 0.01 | 0.45 | 0.40 | 96 | 1010.7 |
| 20260507101551 | 64 | 0 | 0.0 | 1.0 | 0.01 | 0.45 | 0.40 | 96 | 1010.8 |
| 20260507100043 | 64 | 0 | 0.0 | 2.0 | 0.01 | 0.45 | 0.40 | 96 | 1010.7 |
| 20260507094553 | 64 | 0 | 0.0 | 1.0 | 0.01 | 0.44 | 0.39 | 96 | 1010.8 |
| 20260507093047 | 64 | 0 | 0.0 | 1.0 | 0.02 | 0.44 | 0.39 | 96 | 1010.8 |
| 20260507091545 | 64 | 0 | 0.0 | 1.0 | 0.03 | 0.44 | 0.39 | 96 | 1010.6 |
| 20260507090044 | 64 | 0 | 0.0 | 1.0 | 0.03 | 0.44 | 0.39 | 96 | 1010.4 |
| 20260507084553 | 64 | 0 | 0.0 | 1.0 | 0.05 | 0.43 | 0.38 | 96 | 1011.1 |
| 20260507083047 | 64 | 0 | 0.0 | 1.0 | 0.05 | 0.42 | 0.37 | 96 | 1011.1 |
| 20260507081547 | 64 | 0 | 0.0 | 1.0 | 0.05 | 0.41 | 0.36 | 95 | 1011.3 |
| 20260507080116 | 64 | 0 | 0.0 | 2.0 | 0.05 | 0.41 | 0.36 | 95 | 1011.1 |
| 20260507074546 | 64 | 0 | 0.0 | 1.0 | 0.02 | 0.38 | 0.33 | 96 | 1011.2 |
| 20260507073047 | 64 | 0 | 0.0 | 1.0 | 0.03 | 0.37 | 0.32 | 95 | 1011.4 |
| 20260507071557 | 64 | 0 | 0.0 | 2.0 | 0.13 | 0.36 | 0.31 | 95 | 1011.3 |
| 20260507070039 | 64 | 0 | 0.0 | 2.0 | 0.18 | 0.36 | 0.31 | 95 | 1011.1 |
| 20260507064551 | 64 | 151 | 0.0 | 4.0 | 0.23 | 0.36 | 0.31 | 95 | 1011.5 |
| 20260507063046 | 64 | 0 | 0.0 | 3.0 | 0.25 | 0.34 | 0.29 | 95 | 1012.3 |
| 20260507061541 | 64 | 0 | 0.0 | 2.0 | 0.14 | 0.23 | 0.18 | 95 | 1012.9 |
| 20260507060040 | 64 | 0 | 0.0 | 1.0 | 0.08 | 0.17 | 0.12 | 95 | 1012.3 |
| 20260507054541 | 65 | 0 | 0.0 | 1.0 | 0.04 | 0.13 | 0.08 | 95 | 1012.3 |
| 20260507053048 | 65 | 0 | 0.0 | 2.0 | 0.01 | 0.09 | 0.04 | 94 | 1012.5 |
| 20260507051545 | 65 | 0 | 0.0 | 1.0 | 0.01 | 0.09 | 0.04 | 94 | 1012.7 |
| 20260507050044 | 65 | 0 | 0.0 | 1.0 | 0.04 | 0.09 | 0.04 | 94 | 1013.0 |
| 20260507044546 | 65 | 0 | 1.0 | 3.0 | 0.06 | 0.09 | 0.04 | 94 | 1012.5 |
| 20260507043047 | 66 | 121 | 0.0 | 3.0 | 0.06 | 0.08 | 0.03 | 94 | 1013.2 |
| 20260507041546 | 66 | 323 | 0.0 | 3.0 | 0.07 | 0.08 | 0.03 | 94 | 1012.5 |
| 20260507040058 | 66 | 40 | 1.0 | 4.0 | 0.04 | 0.05 | 0.00 | 93 | 1014.2 |
| 20260507034549 | 66 | 66 | 0.0 | 4.0 | 0.02 | 0.03 | 0.03 | 94 | 1014.2 |
| 20260507033043 | 66 | 0 | 0.0 | 2.0 | 0.02 | 0.02 | 0.02 | 94 | 1013.2 |
| 20260507031545 | 66 | 0 | 0.0 | 1.0 | 0.01 | 0.01 | 0.01 | 94 | 1013.0 |
| 20260507030053 | 65 | 0 | 0.0 | 0.0 | 0.01 | 0.01 | 0.01 | 93 | 1013.0 |
| 20260507024545 | 66 | 0 | 0.0 | 0.0 | 0.00 | 0.00 | 0.00 | 93 | 1013.1 |
| 20260507023047 | 66 | 0 | 0.0 | 1.0 | 0.00 | 0.00 | 0.00 | 92 | 1012.8 |
| 20260507021550 | 66 | 0 | 0.0 | 0.0 | 0.00 | 0.00 | 0.00 | 92 | 1012.1 |